TimeEST,TemperatureF,Dew PointF,Humidity,Sea Level PressureIn,VisibilityMPH,Wind Direction,Wind SpeedMPH,Gust SpeedMPH,PrecipitationIn,Events,Conditions,WindDirDegrees,DateUTC
12:53 AM,57.0,48.9,74,30.19,10.0,ENE,8.1,-,N/A,,Clear,60,2012-02-21 05:53:00
1:53 AM,55.9,50.0,80,30.17,10.0,East,5.8,-,N/A,,Clear,80,2012-02-21 06:53:00
2:53 AM,55.9,51.1,84,30.17,10.0,ENE,8.1,-,N/A,,Clear,60,2012-02-21 07:53:00
3:53 AM,55.0,51.1,86,30.16,10.0,ENE,6.9,-,N/A,,Clear,70,2012-02-21 08:53:00
4:53 AM,54.0,51.1,90,30.15,10.0,East,6.9,-,N/A,,Clear,90,2012-02-21 09:53:00
5:53 AM,54.0,51.1,90,30.17,10.0,East,5.8,-,N/A,,Clear,80,2012-02-21 10:53:00
6:53 AM,54.0,50.0,86,30.17,10.0,East,3.5,-,N/A,,Clear,80,2012-02-21 11:53:00
7:53 AM,55.9,52.0,87,30.20,10.0,ENE,6.9,-,N/A,,Partly Cloudy,70,2012-02-21 12:53:00
8:53 AM,62.1,54.0,75,30.22,10.0,East,8.1,-,N/A,,Clear,80,2012-02-21 13:53:00
9:53 AM,69.1,54.0,58,30.19,10.0,SE,12.7,-,N/A,,Clear,140,2012-02-21 14:53:00
10:53 AM,73.9,53.1,48,30.22,10.0,ESE,10.4,-,N/A,,Clear,120,2012-02-21 15:53:00
11:53 AM,75.9,54.0,46,30.22,10.0,ESE,5.8,-,N/A,,Clear,110,2012-02-21 16:53:00
12:53 PM,77.0,55.0,47,30.19,10.0,Variable,3.5,-,N/A,,Clear,0,2012-02-21 17:53:00
1:53 PM,79.0,53.1,40,30.15,10.0,East,4.6,-,N/A,,Clear,90,2012-02-21 18:53:00
2:53 PM,81.0,53.1,38,30.13,10.0,Variable,4.6,-,N/A,,Clear,0,2012-02-21 19:53:00
3:53 PM,80.1,53.1,39,30.12,10.0,Variable,5.8,-,N/A,,Clear,0,2012-02-21 20:53:00
5:53 PM,75.9,57.9,54,30.12,10.0,West,9.2,-,N/A,,Clear,270,2012-02-21 22:53:00
6:53 PM,72.0,59.0,64,30.13,10.0,WSW,5.8,-,N/A,,Clear,250,2012-02-21 23:53:00
7:53 PM,70.0,60.1,71,30.14,10.0,Calm,Calm,-,N/A,,Clear,0,2012-02-22 00:53:00
8:53 PM,69.1,60.1,73,30.15,10.0,Calm,Calm,-,N/A,,Clear,0,2012-02-22 01:53:00
9:53 PM,66.9,60.1,79,30.17,10.0,Calm,Calm,-,N/A,,Clear,0,2012-02-22 02:53:00
10:53 PM,66.0,59.0,78,30.16,10.0,East,3.5,-,N/A,,Partly Cloudy,100,2012-02-22 03:53:00
11:53 PM,66.0,59.0,78,30.15,10.0,Calm,Calm,-,N/A,,Clear,0,2012-02-22 04:53:00